Regional Weather Roundup
Issued by NWS Newport/Morehead, NC

Current Version | Previous Version | Text Only | Print | Product List | Glossary Off
Versions: 1 2 3 4 5 6 7 8 9 10 11 12 13 14 15 16 17 18 19 20 21 22 23 24 25 26 27 28 29 30 31 32 33 34 35 36 37 38 39 40 41 42 43 44 45 46 47 48 49 50

000
ASUS42 KMHX 191624
RWRMHX
WEATHER ROUNDUP FOR EASTERN NORTH CAROLINA
NATIONAL WEATHER SERVICE NEWPORT/MOREHEAD CITY NC
1200 PM EDT SUN APR 19 2015

NOTE: "FAIR" INDICATES FEW OR NO CLOUDS BELOW 12,000 FEET
WITH NO SIGNIFICANT WEATHER AND/OR OBSTRUCTIONS TO VISIBILITY

NCZ015>017-031-032-045>047-102-103-191700-
NORTH COAST

CITY           SKY/WX    TMP DP  RH WIND       PRES   REMARKS
EDENTON        CLOUDY    69  58  68 E13G22    30.06F
ELIZABETH CITY CLOUDY    72  55  55 E15       30.07F
KITTY HAWK     CLOUDY    65  58  78 E8G17     30.06F
MANTEO         CLOUDY    67  57  69 E13       30.06F

$$

NCZ045>047-081-094-103-104-191700-
CENTRAL COAST

CITY           SKY/WX    TMP DP  RH WIND       PRES   REMARKS
FRISCO         CLOUDY    69  62  78 E15       30.05S
SWANQUARTER      N/A     72 N/A N/A NE14      30.00S

$$

NCZ095-097-098-100-101-191700-
SOUTHERN COAST

CITY           SKY/WX    TMP DP  RH WIND       PRES   REMARKS
BEAUFORT       CLOUDY    74  66  76 E10       30.02S
CEDAR ISLAND     N/A     66 N/A N/A NE16      30.06F
JACKSONVILLE   CLOUDY    75  64  68 E13       29.99F
PINEY ISLAND   CLOUDY   N/A N/A N/A E17       30.03S
WILMINGTON     CLOUDY    73  64  73 E10       29.98F


$$

NCZ011>013-027>030-043-044-078>080-089-090>093-098-191700-
COASTAL PLAIN

CITY           SKY/WX    TMP DP  RH WIND       PRES   REMARKS
AHOSKIE        CLOUDY    67  56  69 E8        30.06F
CLINTON        CLOUDY    75  66  73 E6G17     29.98F
ELIZABETHTOWN  CLOUDY    73  67  81 E6        29.96F
GOLDSBORO      CLOUDY    73  64  73 E14       29.97F
GREENVILLE     PTSUNNY   72  63  73 E13       30.05F
HAVELOCK       LGT RAIN  70  65  84 NE10      30.03F
KENANSVILLE    PTSUNNY   75  64  68 E10G16    29.98F
KINSTON        PTSUNNY   75  64  69 E10       30.02F
NEW BERN       CLOUDY    74  62  66 E9        30.03F
RICHLANDS      CLOUDY    75  63  64 E13       29.99F
ROCKY MOUNT    PTSUNNY   71  62  73 NE9       30.02F
WASHINGTON     PTSUNNY   69  61  75 E14       30.04F
WHITEVILLE     CLOUDY    74  67  78 E7        29.95F

$$

AMZ130-135-150-152-154-156-158-170-250-252-270-ANZ085-086-088-633-658-670-191700-
MARINE OBSERVATIONS

STATION/POSITION TIME  TEMP    WIND        PRES    WAVE   SWELL
                       AIR SEA DIR/SP/G            HT/PER HT/PER
                 (UTC) (F)     (DEG/KT/KT) (MB)    (FT/S) (FT/S)
CHESAPEAKE LIGHT 1600   56      60/ 17/ 18 1019.5
64 E VA BEACH    1550   63 57   60/ 12/ 12 1018.3    3/11   3/11
DUCK             1600   58 57   60/ 13/ 14 1017.2
2 E DUCK         1511      56                N/A     3/ 8   2/13
10 NE DUCK       NOT AVBL
OREGON INLET     1600   61 61   50/  7/ 10 1017.7
HATTERAS CG      1600   69 66   80/ 11/ 13 1016.8
DIAMOND BUOY     1550   74 75  110/ 16/ 19 1017.1    4/13   3/13
CAPE LOOKOUT     1600   69      70/  9/ 11 1016.1
BEAUFORT LAB     1600   73 63   80/  8/ 11 1015.6
27 SE WRIGHTSVLE 1600   67 72  170/ 10/ 12   N/A
5 SE WRIGHTSVLE  1600   67 65  100/  8/ 12 1015.3
225 S CAPE HAT   1550   72 75   90/ 10/ 12 1016.8    4/12   3/12
41 SE CHARLESTON 1550   73 75  100/ 12/ 14 1013.2    3/ 8   3/ 8

$$



USA.gov is the U.S. government's official web portal to all federal, state and local government web resources and services.